Regional Weather Roundup
Issued by NWS

Home | Current Version | Previous Version | Graphics & Text | Print | Product List | Glossary On
Versions: 1 2 3 4 5 6 7 8 9 10 11 12 13 14 15 16 17 18 19 20 21 22 23 24 25 26 27 28 29 30 31 32 33 34 35 36 37 38 39 40 41 42 43 44 45 46 47 48 49 50
000
ASUS43 KBIS 210210
RWRND

NORTH DAKOTA REGIONAL WEATHER ROUNDUP
NATIONAL WEATHER SERVICE BISMARCK ND
900 PM CDT FRI OCT 20 2017

NOTE: "FAIR" INDICATES FEW OR NO CLOUDS BELOW 12,000 FEET WITH NO
SIGNIFICANT WEATHER AND/OR OBSTRUCTIONS TO VISIBILITY.


NDZ001>003-009>011-017-210300-
NORTHWEST NORTH DAKOTA

CITY           SKY/WX    TMP DP  RH WIND       PRES   REMARKS
WILLISTON      CLEAR     59  39  47 NW2       29.16F
MINOT          CLEAR     60  46  59 VRB3      29.20F
MINOT AFB      CLEAR     54  42  65 SE5       29.19F
$$

NDZ018>021-031>035-040>046-210300-
SOUTHWEST NORTH DAKOTA

CITY           SKY/WX    TMP DP  RH WIND       PRES   REMARKS
BISMARCK       CLEAR     70  52  52 S22       29.25F
DICKINSON      CLOUDY    55  36  48 S8        29.19S
GARRISON         N/A     62  49  62 S10       29.21F
HETTINGER ARPT CLEAR     61  35  37 S9        29.25F
$$

NDZ004>008-012>016-024-026-027-054-210300-
NORTHEAST NORTH DAKOTA

CITY           SKY/WX    TMP DP  RH WIND       PRES   REMARKS
GRAND FORKS    CLOUDY    71  55  56 S22G38    29.36S
GRND FRKS AFB  CLOUDY    70  54  56 S21G29    29.35S
DEVILS LAKE    CLOUDY    60  51  72 S10       29.33S
$$

NDZ022-023-025-028>030-036>039-047>053-210300-
SOUTHEAST NORTH DAKOTA

CITY           SKY/WX    TMP DP  RH WIND       PRES   REMARKS
FARGO          CLEAR     71  54  54 S24G39    29.43S
JAMESTOWN      CLOUDY    68  53  58 S18G31    29.35R
$$





USA.gov is the U.S. government's official web portal to all federal, state and local government web resources and services.